[[{"header":{"parameterUnit":"m.s-1","parameterCategory":1,"la1":30.2991,"la2":30.254,"lo1":-89.0895,"lo2":-89.0444,"dy":0.0017,"dx":0.0017,"nx":28,"ny":28,"refTime":"2023-04-30T15:00:00:Z","depth":0,"parameterNumber":2,"parameterNumberName":"U-component_of_WINDS"},"data":[0,0,0,0,0,0,0,0,0,0,0,0,0,0,0,0,0,0,0,0,0,0,0,0,0,0,0,0,0,0,0,0,0,0,0,0,0,0,0,0,0,0,0,0,0,0,0,0,0,0,0,0,0,0,0,0,0,0,-1.0643,-1.0643,0,-1.06,-1.0599,-1.0599,-1.0536,-1.0535,-1.0534,-1.0533,-1.0489,-1.0489,-1.0489,0,0,0,0,0,0,0,0,0,0,0,0,0,-1.0673,-1.0673,-1.0643,-1.0643,-1.0642,-1.06,-1.0599,-1.0599,-1.0536,-1.0535,-1.0534,-1.0532,-1.0489,-1.0489,-1.0489,0,0,0,0,0,0,0,0,0,0,0,0,0,-1.0648,-1.0673,-1.0643,-1.0606,-1.0602,-1.06,-1.0599,-1.0598,-1.0537,-1.0535,-1.0533,-1.0532,-1.0489,-1.0489,-1.0489,-1.052,0,0,-1.0488,-1.0488,0,0,0,0,0,0,0,0,-1.065,-1.0647,-1.0612,-1.0609,-1.0604,-1.0572,-1.0594,-1.0572,-1.0537,-1.0562,-1.0533,-1.0531,-1.0518,-1.0515,-1.0511,-1.0518,-1.0516,-1.0488,-1.0488,-1.0488,-1.0488,0,0,0,0,0,0,0,-1.0652,-1.0649,-1.0626,-1.0612,-1.0607,-1.0592,-1.0586,-1.0589,-1.0549,-1.0559,-1.0555,-1.055,-1.0516,-1.0511,-1.0509,-1.0515,-1.0488,-1.0488,-1.0488,-1.0488,-1.0547,-1.0548,0,0,0,0,0,0,-1.0659,-1.0651,-1.0627,-1.0625,-1.0623,-1.0593,-1.0586,-1.0584,-1.0549,-1.0542,-1.0552,-1.0548,-1.0512,-1.051,-1.0507,-1.0542,-1.0488,-1.0488,-1.0487,-1.0545,-1.0547,-1.0549,0,0,0,0,0,0,-1.066,-1.0657,-1.0629,-1.0636,-1.0632,-1.0594,-1.0591,-1.0584,-1.0579,-1.0543,-1.0536,-1.0554,-1.0511,-1.0508,-1.0517,-1.054,-1.0487,-1.0487,-1.0543,-1.0545,-1.0548,-1.0611,0,0,0,0,0,0,-1.0661,-1.0658,-1.0669,-1.0637,-1.0631,-1.064,-1.0593,-1.0584,-1.0579,-1.0573,-1.0544,-1.0538,-1.0509,-1.0518,-1.0517,-1.0538,-1.0487,-1.0541,-1.0544,-1.0547,-1.0607,-1.0616,-1.0623,0,0,0,0,0,-1.0662,-1.0689,-1.067,-1.0667,-1.0645,-1.0641,-1.0638,-1.0605,-1.0581,-1.0592,-1.0569,-1.0539,-1.0537,-1.052,-1.0518,-1.0539,-1.0539,-1.0543,-1.0547,-1.0603,-1.0614,-1.0623,0,0,0,0,0,0,-1.0724,-1.0684,-1.0662,-1.0679,-1.0664,-1.0631,-1.0643,-1.0617,-1.0608,-1.0603,-1.0562,-1.0556,-1.0571,-1.0556,-1.0537,-1.0568,-1.0534,-1.0537,-1.0577,-1.0587,-1.0595,-1.0598,-1.0487,0,0,0,0,0,-1.074,-1.074,-1.0705,-1.0723,-1.0717,-1.0682,-1.0679,-1.0655,-1.0637,-1.063,-1.0608,-1.0593,-1.0589,-1.0587,-1.0581,-1.0605,-1.0598,-1.0619,-1.0627,-1.0633,-1.0637,-1.0649,-1.0658,-1.0561,-1.0561,-1.0561,0,0,-1.0772,-1.075,-1.0753,-1.0735,-1.072,-1.0722,-1.0677,-1.068,-1.0681,-1.0631,-1.0639,-1.0622,-1.0602,-1.0619,-1.0625,-1.0607,-1.0662,-1.0638,-1.0644,-1.0644,-1.0654,-1.0663,-1.0671,-1.0564,-1.0564,-1.0563,0,0,-1.0832,-1.0815,-1.0829,-1.0815,-1.0794,-1.077,-1.0774,-1.0744,-1.0731,-1.0738,-1.0701,-1.0702,-1.0696,-1.0683,-1.0676,-1.0733,-1.0704,-1.0732,-1.0774,-1.0786,-1.0793,-1.08,-1.082,-1.0828,-1.0736,-1.0736,-1.0736,0,-1.0875,-1.0876,-1.0839,-1.0845,-1.0839,-1.0794,-1.0808,-1.0796,-1.0774,-1.0771,-1.0751,-1.0743,-1.0726,-1.074,-1.0754,-1.075,-1.0753,-1.0735,-1.0795,-1.0801,-1.0807,-1.0826,-1.0834,-1.0739,-1.0739,-1.0739,-1.0738,0,-1.093,-1.0931,-1.0945,-1.0924,-1.092,-1.093,-1.0896,-1.0895,-1.0872,-1.0851,-1.0859,-1.0838,-1.0827,-1.0829,-1.0805,-1.0839,-1.0829,-1.0803,-1.0767,-1.082,-1.0838,-1.0845,-1.0744,-1.0743,-1.0742,-1.0741,0,0,-1.1027,-1.0987,-1.0993,-1.0983,-1.0957,-1.0957,-1.0965,-1.0955,-1.0956,-1.0942,-1.0949,-1.0945,-1.0921,-1.0913,-1.0888,-1.0899,-1.0945,-1.0871,-1.087,-1.0886,-1.0982,-1.1002,-1.1011,-1.0927,-1.0928,-1.0929,-1.0983,0,-1.1081,-1.1093,-1.1061,-1.1081,-1.1082,-1.104,-1.1047,-1.1032,-1.1013,-1.1011,-1.099,-1.0988,-1.0956,-1.0951,-1.096,-1.0938,-1.0964,-1.0934,-1.0932,-1.0933,-1.0939,-1.1019,-1.104,-1.1093,-1.099,-1.0991,-1.0992,0,-1.1146,-1.1137,-1.1157,-1.1129,-1.1129,-1.1136,-1.1124,-1.1123,-1.1105,-1.1091,-1.1082,-1.1054,-1.106,-1.1027,-1.1036,-1.1016,-1.1013,-1.1003,-1.1004,-1.1003,-1.0966,-1.102,-1.1109,-1.1117,-1.1002,-1.1001,-1.1001,0,-1.1216,-1.1207,-1.1218,-1.1212,-1.118,-1.1186,-1.1173,-1.1154,-1.115,-1.114,-1.1137,-1.1129,-1.1124,-1.1118,-1.1088,-1.1066,-1.1101,-1.1064,-1.1089,-1.109,-1.1098,-1.1098,-1.1188,-1.1097,-1.1097,-1.1097,-1.1097,0,-1.128,-1.1294,-1.1249,-1.1256,-1.1271,-1.1234,-1.125,-1.1233,-1.1216,-1.1219,-1.1182,-1.1186,-1.1146,-1.1146,-1.1122,-1.1134,-1.1132,-1.1121,-1.1114,-1.1124,-1.1125,-1.1122,-1.1117,-1.1099,-1.1098,-1.1098,-1.1098,0,-1.136,-1.133,-1.1339,-1.1309,-1.1302,-1.1314,-1.1288,-1.1293,-1.1272,-1.1277,-1.1276,-1.1243,-1.124,-1.121,-1.1201,-1.1185,-1.1206,-1.1193,-1.1212,-1.1208,-1.1234,-1.1233,-1.1325,-1.1335,-1.1238,-1.1239,-1.124,0,-1.1402,-1.1412,-1.1383,-1.1383,-1.1372,-1.1371,-1.1367,-1.1332,-1.133,-1.1311,-1.1319,-1.1313,-1.1307,-1.1305,-1.1281,-1.1274,-1.126,-1.1293,-1.1259,-1.1269,-1.1261,-1.1261,-1.1262,-1.13,-1.1302,-1.1303,-1.1303,0,-1.1482,-1.1467,-1.1463,-1.1454,-1.145,-1.1441,-1.143,-1.1431,-1.1393,-1.1392,-1.1389,-1.1385,-1.1376,-1.1371,-1.136,-1.1347,-1.132,-1.1315,-1.132,-1.133,-1.1341,-1.1336,-1.1232,-1.1312,-1.1312,-1.1311,-1.131,-1.131,-1.1544,-1.1551,-1.1532,-1.1529,-1.1517,-1.1508,-1.1511,-1.1491,-1.1488,-1.1478,-1.1457,-1.1458,-1.1441,-1.1423,-1.1413,-1.1413,-1.1396,-1.1404,-1.1406,-1.1408,-1.1414,-1.1341,-1.1411,-1.141,-1.141,-1.141,-1.141,0,-1.1622,-1.1608,-1.1605,-1.1591,-1.1589,-1.1562,-1.1549,-1.1549,-1.155,-1.1536,-1.1531,-1.1528,-1.1524,-1.1499,-1.1492,-1.1497,-1.1484,-1.1496,-1.1496,-1.1493,-1.1429,-1.1425,-1.1507,-1.1507,-1.1507,-1.1507,-1.1507,-1.1507,-1.1662,-1.1673,-1.1656,-1.1661,-1.1646,-1.1647,-1.1641,-1.1633,-1.1621,-1.162,-1.1616,-1.16,-1.1582,-1.1574,-1.1569,-1.1562,-1.1561,-1.1578,-1.1567,-1.1507,-1.1498,-1.1489,-1.1485,-1.1578,-1.1578,-1.1631,-1.1631,-1.1632]},{"header":{"parameterUnit":"m.s-1","parameterCategory":1,"la1":30.2991,"la2":30.254,"lo1":-89.0895,"lo2":-89.0444,"dy":0.0017,"dx":0.0017,"nx":28,"ny":28,"refTime":"2023-04-30T15:00:00:Z","depth":0,"parameterNumber":3,"parameterNumberName":"V-component_of_WINDS"},"data":[0,0,0,0,0,0,0,0,0,0,0,0,0,0,0,0,0,0,0,0,0,0,0,0,0,0,0,0,0,0,0,0,0,0,0,0,0,0,0,0,0,0,0,0,0,0,0,0,0,0,0,0,0,0,0,0,0,0,-1.2459,-1.2459,0,-1.2464,-1.2464,-1.2464,-1.2456,-1.2455,-1.2455,-1.2455,-1.2459,-1.2459,-1.2459,0,0,0,0,0,0,0,0,0,0,0,0,0,-1.2442,-1.2443,-1.2459,-1.2459,-1.2459,-1.2464,-1.2464,-1.2464,-1.2456,-1.2455,-1.2455,-1.2455,-1.2458,-1.2459,-1.2459,0,0,0,0,0,0,0,0,0,0,0,0,0,-1.2449,-1.2443,-1.2459,-1.2456,-1.2455,-1.2464,-1.2464,-1.2464,-1.2456,-1.2455,-1.2455,-1.2454,-1.2458,-1.2459,-1.2459,-1.2471,0,0,-1.2461,-1.2461,0,0,0,0,0,0,0,0,-1.2448,-1.2449,-1.2456,-1.2456,-1.2456,-1.2459,-1.2459,-1.2467,-1.2456,-1.2456,-1.2455,-1.2454,-1.2459,-1.2459,-1.2461,-1.2471,-1.2472,-1.2461,-1.2461,-1.2462,-1.2462,0,0,0,0,0,0,0,-1.2448,-1.2449,-1.2461,-1.2456,-1.2456,-1.2454,-1.2454,-1.2461,-1.246,-1.2456,-1.2455,-1.2456,-1.2459,-1.2461,-1.2461,-1.2472,-1.2461,-1.2462,-1.2462,-1.2462,-1.2493,-1.2493,0,0,0,0,0,0,-1.2448,-1.2449,-1.2461,-1.2461,-1.2451,-1.2454,-1.2455,-1.2458,-1.2459,-1.2459,-1.2456,-1.2455,-1.246,-1.2461,-1.2461,-1.2476,-1.2462,-1.2462,-1.2463,-1.2493,-1.2493,-1.2494,0,0,0,0,0,0,-1.2448,-1.2449,-1.2461,-1.2455,-1.2456,-1.2455,-1.2459,-1.2459,-1.2461,-1.246,-1.2459,-1.2458,-1.246,-1.2461,-1.2469,-1.2476,-1.2462,-1.2463,-1.2492,-1.2493,-1.2493,-1.2506,0,0,0,0,0,0,-1.2447,-1.2449,-1.2454,-1.2455,-1.2457,-1.2469,-1.2459,-1.2459,-1.2462,-1.2461,-1.2462,-1.2462,-1.2459,-1.2468,-1.247,-1.2477,-1.2463,-1.2491,-1.2492,-1.2493,-1.2505,-1.2507,-1.2509,0,0,0,0,0,-1.2447,-1.2456,-1.2454,-1.2455,-1.2462,-1.2469,-1.247,-1.2467,-1.2462,-1.2467,-1.2467,-1.2462,-1.2475,-1.2469,-1.2471,-1.2478,-1.2491,-1.2492,-1.2493,-1.2504,-1.2506,-1.2509,0,0,0,0,0,0,-1.2455,-1.2457,-1.2454,-1.2464,-1.2467,-1.2468,-1.2474,-1.247,-1.2474,-1.2473,-1.2469,-1.2469,-1.2479,-1.2479,-1.2473,-1.249,-1.2482,-1.2484,-1.249,-1.2492,-1.2494,-1.2494,-1.2464,0,0,0,0,0,-1.2459,-1.2465,-1.2465,-1.2474,-1.2476,-1.2475,-1.2477,-1.2475,-1.2477,-1.2478,-1.2479,-1.2481,-1.2485,-1.2489,-1.2493,-1.2504,-1.2505,-1.251,-1.2512,-1.2514,-1.2515,-1.2522,-1.2525,-1.2497,-1.2497,-1.2497,0,0,-1.2465,-1.2467,-1.247,-1.2476,-1.2478,-1.2484,-1.2475,-1.2482,-1.2487,-1.2479,-1.2488,-1.2488,-1.249,-1.2501,-1.2505,-1.2501,-1.2523,-1.2515,-1.2516,-1.2517,-1.2524,-1.2526,-1.2529,-1.2498,-1.2498,-1.2498,0,0,-1.2481,-1.2482,-1.2491,-1.2493,-1.2496,-1.2495,-1.2497,-1.2498,-1.2499,-1.2507,-1.2502,-1.2507,-1.2515,-1.2517,-1.2519,-1.2537,-1.2533,-1.2538,-1.2548,-1.2555,-1.2558,-1.2559,-1.2567,-1.2569,-1.2539,-1.2539,-1.2539,0,-1.2489,-1.2498,-1.2495,-1.2503,-1.2506,-1.25,-1.2509,-1.2511,-1.2514,-1.2517,-1.2512,-1.2523,-1.2524,-1.2535,-1.2539,-1.2541,-1.2543,-1.2538,-1.2557,-1.2559,-1.2561,-1.2568,-1.257,-1.254,-1.254,-1.254,-1.254,0,-1.2508,-1.2515,-1.2521,-1.2526,-1.253,-1.2538,-1.2536,-1.254,-1.2538,-1.2537,-1.2547,-1.2547,-1.2552,-1.2555,-1.2552,-1.2566,-1.2563,-1.2558,-1.255,-1.2565,-1.2571,-1.2573,-1.2541,-1.2541,-1.2541,-1.254,0,0,-1.253,-1.2534,-1.2536,-1.2539,-1.2542,-1.2547,-1.2554,-1.256,-1.2563,-1.2566,-1.2573,-1.258,-1.2576,-1.2578,-1.2576,-1.2582,-1.2596,-1.2576,-1.2576,-1.2581,-1.2613,-1.2618,-1.2621,-1.2593,-1.2594,-1.2594,-1.2613,0,-1.2546,-1.2561,-1.2559,-1.2572,-1.2579,-1.2573,-1.258,-1.2583,-1.2583,-1.2588,-1.2588,-1.2593,-1.2586,-1.2588,-1.2593,-1.2593,-1.2603,-1.2592,-1.26,-1.2601,-1.2601,-1.2624,-1.2629,-1.2647,-1.2615,-1.2616,-1.2616,0,-1.2567,-1.2572,-1.2587,-1.259,-1.2592,-1.2599,-1.2604,-1.2609,-1.2612,-1.2611,-1.2614,-1.2611,-1.2619,-1.261,-1.2621,-1.2614,-1.2617,-1.2617,-1.2618,-1.2619,-1.261,-1.2627,-1.2652,-1.2655,-1.262,-1.2619,-1.2619,0,-1.2583,-1.2593,-1.2603,-1.2605,-1.2609,-1.2613,-1.2615,-1.2617,-1.2621,-1.2625,-1.2628,-1.2632,-1.2635,-1.2639,-1.2637,-1.2631,-1.2649,-1.264,-1.2649,-1.2649,-1.2654,-1.2654,-1.2681,-1.2654,-1.2654,-1.2654,-1.2654,0,-1.2602,-1.2612,-1.261,-1.2617,-1.2627,-1.2625,-1.2635,-1.2636,-1.2638,-1.2645,-1.264,-1.2646,-1.2643,-1.2648,-1.2647,-1.2657,-1.2658,-1.2658,-1.2658,-1.2659,-1.2659,-1.2662,-1.2661,-1.2655,-1.2655,-1.2655,-1.2655,0,-1.2622,-1.2621,-1.2633,-1.2635,-1.2636,-1.2644,-1.2646,-1.2652,-1.2651,-1.266,-1.2661,-1.2661,-1.2668,-1.2666,-1.2673,-1.2672,-1.2685,-1.2682,-1.2684,-1.2684,-1.2694,-1.2694,-1.2725,-1.2729,-1.2698,-1.2699,-1.2699,0,-1.2635,-1.2642,-1.2646,-1.265,-1.2652,-1.2659,-1.2663,-1.2661,-1.2665,-1.2669,-1.2675,-1.2681,-1.2687,-1.2697,-1.2698,-1.2703,-1.2701,-1.2712,-1.2702,-1.2704,-1.2703,-1.2703,-1.2704,-1.2714,-1.2714,-1.2715,-1.2715,0,-1.2658,-1.2658,-1.2664,-1.267,-1.2675,-1.268,-1.2684,-1.2688,-1.2686,-1.2691,-1.2698,-1.2702,-1.271,-1.2716,-1.2722,-1.2723,-1.2719,-1.2718,-1.2721,-1.2723,-1.2724,-1.2725,-1.2691,-1.2717,-1.2717,-1.2717,-1.2717,-1.2717,-1.2676,-1.2682,-1.2686,-1.2694,-1.2697,-1.2701,-1.2707,-1.2708,-1.2714,-1.2721,-1.2718,-1.2727,-1.273,-1.2737,-1.2739,-1.2745,-1.2741,-1.2745,-1.2746,-1.2747,-1.2749,-1.2722,-1.2746,-1.2746,-1.2746,-1.2746,-1.2746,0,-1.27,-1.2702,-1.2709,-1.2715,-1.2721,-1.2717,-1.2722,-1.2727,-1.2735,-1.2738,-1.2743,-1.2752,-1.2759,-1.2759,-1.2766,-1.2771,-1.2769,-1.2773,-1.2773,-1.2773,-1.2752,-1.2749,-1.2774,-1.2774,-1.2774,-1.2774,-1.2774,-1.2774,-1.2713,-1.2725,-1.2725,-1.2738,-1.274,-1.2749,-1.2752,-1.2756,-1.2759,-1.2769,-1.2775,-1.2775,-1.2778,-1.2784,-1.279,-1.279,-1.2793,-1.2798,-1.2797,-1.2777,-1.2775,-1.2772,-1.277,-1.2798,-1.2798,-1.2818,-1.2819,-1.2819]}]]